• In Deutschland
  • Länderverzeichnis
  • Für 7 Tage
  • Wassertemperatur
  • Satellitenkarten
  • Wetterkarte
  • Widgets
  • user-avatar
    Anmelden

    Stündliche Wetter Yopal

    Heute, 20 August, Sonntag

    Zeit Temperatur Niederschläge Wind Luftdruck Luftfeuchtigkeit
    00:00 +25°C° 0,5 mm 1 m/S 729 mmHg 89%
    01:00 +25°C° 0,5 mm 1 m/S 729 mmHg 88%
    02:00 +25°C° 0,3 mm 1 m/S 729 mmHg 88%
    03:00 +25°C° 0,3 mm 1 m/S 729 mmHg 87%
    04:00 +25°C° 0,3 mm 1 m/S 729 mmHg 86%
    05:00 +25°C° 0,3 mm 1 m/S 729 mmHg 84%
    06:00 +24°C° 0,3 mm 0 m/S 730 mmHg 82%
    07:00 +24°C° 0,3 mm 0 m/S 730 mmHg 81%
    08:00 +28°C° 0,1 mm 1 m/S 731 mmHg 74%
    09:00 +30°C° 0,1 mm 1 m/S 731 mmHg 67%
    10:00 +32°C° 0,1 mm 1 m/S 731 mmHg 61%
    11:00 +33°C° 0,2 mm 1 m/S 731 mmHg 59%
    12:00 +34°C° 0,2 mm 2 m/S 730 mmHg 57%
    13:00 +35°C° 0,2 mm 2 m/S 729 mmHg 55%
    14:00 +34°C° 0,7 mm 2 m/S 729 mmHg 62%
    15:00 +32°C° 0,7 mm 2 m/S 729 mmHg 68%
    16:00 +31°C° 0,7 mm 2 m/S 728 mmHg 74%
    17:00 +30°C° 0,7 mm 1 m/S 729 mmHg 79%
    18:00 +28°C° 0,7 mm 1 m/S 729 mmHg 84%
    19:00 +27°C° 0,7 mm 1 m/S 729 mmHg 89%
    20:00 +26°C° 0,2 mm 1 m/S 730 mmHg 88%
    21:00 +26°C° 0,2 mm 1 m/S 730 mmHg 87%
    22:00 +26°C° 0,2 mm 1 m/S 731 mmHg 86%
    23:00 +25°C° 0,2 mm 1 m/S 731 mmHg 85%

    Morgen, 21 August, Montag

    Zeit Temperatur Niederschläge Wind Luftdruck Luftfeuchtigkeit
    00:00 +25°C° 0,2 mm 1 m/S 731 mmHg 83%
    01:00 +25°C° 0,2 mm 1 m/S 731 mmHg 82%
    02:00 +25°C° 0,3 mm 1 m/S 731 mmHg 80%
    03:00 +24°C° 0,3 mm 1 m/S 730 mmHg 79%
    04:00 +24°C° 0,3 mm 1 m/S 730 mmHg 78%
    05:00 +25°C° 0 mm 1 m/S 731 mmHg 76%
    06:00 +25°C° 0 mm 1 m/S 731 mmHg 75%
    07:00 +26°C° 0 mm 1 m/S 732 mmHg 73%
    08:00 +28°C° 0 mm 1 m/S 732 mmHg 67%
    09:00 +30°C° 0 mm 1 m/S 732 mmHg 62%
    10:00 +32°C° 0 mm 1 m/S 732 mmHg 57%
    11:00 +32°C° 0,4 mm 2 m/S 732 mmHg 59%
    12:00 +32°C° 0,4 mm 2 m/S 731 mmHg 61%
    13:00 +33°C° 0,4 mm 3 m/S 731 mmHg 64%
    14:00 +30°C° 0,8 mm 2 m/S 731 mmHg 73%
    15:00 +28°C° 0,8 mm 2 m/S 730 mmHg 81%
    16:00 +27°C° 0,8 mm 1 m/S 730 mmHg 90%
    17:00 +26°C° 0,5 mm 1 m/S 730 mmHg 91%
    18:00 +26°C° 0,5 mm 1 m/S 731 mmHg 92%
    19:00 +25°C° 0,5 mm 1 m/S 731 mmHg 93%
    20:00 +25°C° 0,1 mm 1 m/S 732 mmHg 90%
    21:00 +25°C° 0,1 mm 1 m/S 732 mmHg 88%
    22:00 +25°C° 0,1 mm 1 m/S 733 mmHg 86%
    23:00 +25°C° 0 mm 1 m/S 732 mmHg 84%

    übermorgen, 22 August, Dienstag

    Zeit Temperatur Niederschläge Wind Luftdruck Luftfeuchtigkeit
    00:00 +25°C° 0 mm 1 m/S 731 mmHg 82%
    01:00 +25°C° 0 mm 1 m/S 731 mmHg 80%
    02:00 +24°C° 0 mm 1 m/S 731 mmHg 80%
    03:00 +24°C° 0 mm 1 m/S 731 mmHg 81%
    04:00 +24°C° 0 mm 1 m/S 731 mmHg 81%
    05:00 +24°C° 0 mm 1 m/S 731 mmHg 79%
    06:00 +23°C° 0 mm 0 m/S 732 mmHg 77%
    07:00 +23°C° 0 mm 0 m/S 732 mmHg 75%
    08:00 +27°C° 0 mm 1 m/S 733 mmHg 69%
    09:00 +29°C° 0 mm 2 m/S 733 mmHg 62%
    10:00 +31°C° 0 mm 2 m/S 733 mmHg 55%
    11:00 +32°C° 0 mm 2 m/S 732 mmHg 54%
    12:00 +34°C° 0 mm 2 m/S 731 mmHg 53%
    13:00 +34°C° 0 mm 2 m/S 731 mmHg 52%
    14:00 +34°C° 0,1 mm 2 m/S 730 mmHg 54%
    15:00 +34°C° 0,1 mm 2 m/S 729 mmHg 57%
    16:00 +32°C° 0,1 mm 1 m/S 729 mmHg 59%
    17:00 +30°C° 0,3 mm 1 m/S 729 mmHg 67%
    18:00 +28°C° 0,3 mm 1 m/S 729 mmHg 75%
    19:00 +27°C° 0,3 mm 1 m/S 730 mmHg 82%
    20:00 +26°C° 0,4 mm 1 m/S 730 mmHg 83%
    21:00 +26°C° 0,4 mm 1 m/S 731 mmHg 84%
    22:00 +25°C° 0,4 mm 1 m/S 732 mmHg 86%
    23:00 +25°C° 0,1 mm 1 m/S 731 mmHg 85%

    23 August, Mittwoch

    Zeit Temperatur Niederschläge Wind Luftdruck Luftfeuchtigkeit
    00:00 +25°C° 0,1 mm 1 m/S 731 mmHg 84%
    01:00 +25°C° 0,1 mm 1 m/S 730 mmHg 83%
    02:00 +25°C° 0,1 mm 1 m/S 730 mmHg 83%
    03:00 +24°C° 0,1 mm 1 m/S 730 mmHg 83%
    04:00 +24°C° 0,1 mm 1 m/S 730 mmHg 82%
    05:00 +25°C° 0,1 mm 1 m/S 730 mmHg 80%
    06:00 +25°C° 0,1 mm 1 m/S 731 mmHg 78%
    07:00 +26°C° 0,1 mm 1 m/S 731 mmHg 76%
    08:00 +28°C° 0 mm 1 m/S 731 mmHg 70%
    09:00 +30°C° 0 mm 1 m/S 731 mmHg 64%
    10:00 +32°C° 0 mm 2 m/S 731 mmHg 58%
    11:00 +32°C° 0,1 mm 2 m/S 731 mmHg 57%
    12:00 +34°C° 0,1 mm 2 m/S 730 mmHg 55%
    13:00 +34°C° 0,1 mm 2 m/S 729 mmHg 54%
    14:00 +34°C° 0,6 mm 2 m/S 728 mmHg 60%
    15:00 +32°C° 0,6 mm 2 m/S 728 mmHg 67%
    16:00 +31°C° 0,6 mm 1 m/S 727 mmHg 73%
    17:00 +30°C° 0,6 mm 1 m/S 728 mmHg 78%
    18:00 +28°C° 0,6 mm 1 m/S 728 mmHg 83%
    19:00 +26°C° 0,6 mm 1 m/S 729 mmHg 88%
    20:00 +26°C° 0,3 mm 1 m/S 729 mmHg 88%
    21:00 +25°C° 0,3 mm 1 m/S 730 mmHg 89%
    22:00 +25°C° 0,3 mm 1 m/S 730 mmHg 89%
    23:00 +25°C° 0,1 mm 1 m/S 730 mmHg 87%

    24 August, Donnerstag

    Zeit Temperatur Niederschläge Wind Luftdruck Luftfeuchtigkeit
    00:00 +24°C° 0,1 mm 1 m/S 729 mmHg 86%
    01:00 +24°C° 0,1 mm 1 m/S 729 mmHg 85%
    02:00 +24°C° 0,1 mm 1 m/S 729 mmHg 82%
    03:00 +24°C° 0,1 mm 1 m/S 729 mmHg 80%
    04:00 +24°C° 0,1 mm 1 m/S 729 mmHg 77%
    05:00 +24°C° 0,1 mm 1 m/S 730 mmHg 75%
    06:00 +25°C° 0,1 mm 1 m/S 730 mmHg 73%
    07:00 +26°C° 0,1 mm 1 m/S 731 mmHg 71%
    08:00 +27°C° 0,2 mm 1 m/S 731 mmHg 69%
    09:00 +28°C° 0,2 mm 1 m/S 731 mmHg 66%
    10:00 +29°C° 0,2 mm 2 m/S 731 mmHg 64%
    11:00 +30°C° 0,2 mm 2 m/S 731 mmHg 61%
    12:00 +31°C° 0,2 mm 2 m/S 730 mmHg 58%
    13:00 +32°C° 0,2 mm 2 m/S 730 mmHg 55%
    14:00 +32°C° 0,1 mm 2 m/S 729 mmHg 59%
    15:00 +31°C° 0,1 mm 2 m/S 729 mmHg 63%
    16:00 +31°C° 0,1 mm 1 m/S 728 mmHg 66%
    17:00 +29°C° 0,4 mm 1 m/S 728 mmHg 74%
    18:00 +28°C° 0,4 mm 1 m/S 729 mmHg 81%
    19:00 +24°C° 0,4 mm 0 m/S 729 mmHg 89%
    20:00 +26°C° 0,4 mm 1 m/S 730 mmHg 89%
    21:00 +25°C° 0,4 mm 1 m/S 730 mmHg 89%
    22:00 +25°C° 0,4 mm 1 m/S 730 mmHg 88%
    23:00 +25°C° 0,5 mm 1 m/S 730 mmHg 87%

    25 August, Freitag

    Zeit Temperatur Niederschläge Wind Luftdruck Luftfeuchtigkeit
    00:00 +24°C° 0,5 mm 1 m/S 730 mmHg 87%
    01:00 +24°C° 0,5 mm 1 m/S 730 mmHg 86%
    02:00 +24°C° 0,4 mm 1 m/S 730 mmHg 85%
    03:00 +24°C° 0,4 mm 1 m/S 730 mmHg 85%
    04:00 +24°C° 0,4 mm 1 m/S 730 mmHg 84%
    05:00 +24°C° 0,3 mm 1 m/S 731 mmHg 83%
    06:00 +24°C° 0,3 mm 1 m/S 731 mmHg 81%
    07:00 +25°C° 0,3 mm 1 m/S 731 mmHg 80%
    08:00 +27°C° 0,2 mm 2 m/S 732 mmHg 73%
    09:00 +29°C° 0,2 mm 2 m/S 732 mmHg 66%
    10:00 +31°C° 0,2 mm 2 m/S 732 mmHg 60%
    11:00 +31°C° 0,1 mm 2 m/S 732 mmHg 57%
    12:00 +33°C° 0,1 mm 3 m/S 731 mmHg 55%
    13:00 +34°C° 0,1 mm 3 m/S 730 mmHg 53%
    14:00 +33°C° 0,3 mm 3 m/S 730 mmHg 59%
    15:00 +31°C° 0,3 mm 3 m/S 729 mmHg 65%
    16:00 +30°C° 0,3 mm 2 m/S 729 mmHg 71%
    17:00 +29°C° 0,3 mm 2 m/S 729 mmHg 77%
    18:00 +27°C° 0,3 mm 1 m/S 730 mmHg 83%
    19:00 +26°C° 0,3 mm 1 m/S 730 mmHg 88%
    20:00 +26°C° 0,1 mm 1 m/S 731 mmHg 88%
    21:00 +26°C° 0,1 mm 1 m/S 731 mmHg 87%
    22:00 +23°C° 0,1 mm 0 m/S 731 mmHg 87%
    23:00 +23°C° 0,1 mm 0 m/S 731 mmHg 86%
    Mehr zeigen